User: anonymous   Login
Location: Unspecified
(0.0000°N, 0.0000°E)
Time: 06:33:14
(UTC+00:00)
Language:

GALILEO 24 (2C0) - Orbit

View from above orbital plane
View from above orbital plane
View from above satellite
View from above satellite

Ground track
Ground track

The orbit is defined by the following mean orbital elements,

1 43567U          26143.50341516 +.00000000 +00000-0 +00000-0 0 00009
2 43567  57.1794 342.4508 0002695 325.3655  34.6368  1.70475670    04
Epoch (UTC): 23 May 2026 12:04:55
Eccentricity: 0.0002695
inclination: 57.1794°
perigee height: 23214 km
apogee height: 23230 km
right ascension of ascending node: 342.4508°
argument of perigee: 325.3655°
revolutions per day: 1.70475670
mean anomaly at epoch: 34.6368°

The dashed part of the orbit path shows where the satellite is in the earth's shadow,  

DLR